Temp
-6 -6 -5 -6 -6 -6 -6 -7 -6 -6 -7 -8 -8 -8 -5 -5 -5 -4 -4 -5 -4 -4 -4 -4 -5 -5 -6 -6 -5 -5 -5 -5 -5 -5 -5 -5 -6 -5 -6 -6 -5 -5 -5 -6
-6 -6 -6 -6 -6 -6 -6 -6 -6 -7 -6 -8 -8 -9 -7 -5 -6 -5 -4 -5 -4 -4 -4 -4 -4 -5 -5 -6 -6 -5 -5 -5 -4 -5 -5 -5 -5 -5 -6 -6 -5 -5 -5 -5
-6 -6 -7 -6 -6 -6 -6 -6 -6 -6 -8 -8 -8 -8 -8 -5 -6 -5 -4 -5 -4 -4 -4 -4 -4 -4 -5 -5 -6 -5 -5 -5 -5 -5 -5 -5 -5 -5 -5 -5 -5 -5 -5 -5
-6 -6 -6 -6 -6 -6 -6 -6 -6 -6 -7 -7 -8 -8 -8 -5 -5 -4 -3 -5 -4 -4 -5 -4 -5 -5 -5 -5 -5 -5 -5 -5 -5 -4 -5 -5 -5 -5 -5 -5 -5 -5 -5 -5
-7 -7 -7 -6 -6 -7 -6 -7 -7 -7 -6 -7 -7 -8 -7 -8 -7 -5 -4 -5 -5 -5 -4 -5 -5 -5 -5 -4 -4 -5 -5 -5 -5 -4 -5 -5 -5 -5 -5 -5 -5 -5 -5 -5
-7 -7 -7 -7 -7 -6 -7 -7 -7 -6 -7 -7 -6 -7 -8 -8 -7 -8 -6 -5 -6 -4 -5 -5 -5 -5 -5 -5 -4 -4 -5 -5 -5 -4 -4 -5 -5 -5 -5 -5 -5 -5 -4 -4
-10 -9 -9 -9 -7 -7 -7 -8 -7 -7 -7 -6 -6 -6 -4 -7 -8 -7 -5 -6 -5 -4 -5 -5 -4 -4 -5 -5 -6 -5 -5 -5 -5 -5 -4 -5 -4 -5 -5 -5 -4 -5 -5 -4
-11 -12 -11 -11 -9 -9 -9 -9 -9 -8 -7 -5 -6 -6 -4 -5 -6 -8 -6 -6 -4 -4 -3 -5 -4 -4 -4 -5 -5 -6 -5 -5 -5 -4 -4 -5 -5 -4 -5 -5 -4 -5 -5 -5
-13 -12 -14 -14 -12 -12 -10 -13 -8 -11 -11 -9 -9 -8 -6 -6 -7 -7 -8 -5 -5 -5 -4 -4 -5 -4 -4 -4 -5 -6 -6 -5 -5 -5 -4 -4 -5 -4 -5 -5 -5 -5 -4 -5
-12 -12 -12 -14 -14 -14 -14 -11 -12 -12 -12 -11 -9 -9 -8 -7 -6 -7 -7 -6 -5 -5 -4 -4 -4 -5 -4 -4 -4 -5 -5 -5 -5 -5 -5 -4 -5 -5 -5 -5 -5 -5 -5 -5
-13 -13 -13 -13 -14 -15 -14 -13 -12 -13 -12 -11 -10 -9 -8 -8 -7 -7 -6 -6 -5 -5 -4 -7 -5 -5 -5 -5 -5 -5 -5 -5 -5 -5 -5 -4 -4 -4 -4 -5 -5 -5 -5 -5
-13 -14 -13 -14 -14 -15 -15 -15 -13 -13 -12 -12 -11 -10 -8 -7 -8 -8 -7 -7 -7 -7 -5 -5 -6 -5 -6 -5 -5 -5 -6 -5 -5 -5 -5 -5 -4 -4 -4 -5 -5 -5 -5 -5
-15 -14 -14 -14 -14 -14 -15 -13 -13 -14 -13 -12 -12 -9 -8 -8 -9 -9 -9 -7 -7 -7 -7 -7 -6 -7 -6 -6 -5 -5 -6 -6 -5 -5 -5 -5 -5 -4 -4 -5 -5 -5 -5 -5
-18 -16 -16 -15 -16 -16 -16 -16 -16 -15 -14 -12 -11 -11 -10 -10 -10 -10 -10 -10 -7 -6 -8 -7 -7 -5 -6 -5 -6 -6 -6 -7 -6 -5 -5 -5 -5 -5 -5 -5 -5 -5 -5 -5
-20 -19 -18 -17 -17 -17 -16 -16 -16 -15 -14 -14 -12 -11 -11 -11 -10 -10 -11 -10 -8 -9 -9 -9 -9 -9 -7 -6 -6 -6 -6 -7 -6 -5 -5 -5 -5 -5 -5 -5 -5 -5 -5 -5
-21 -20 -20 -18 -17 -17 -16 -16 -16 -14 -14 -14 -12 -13 -12 -11 -10 -10 -10 -10 -10 -8 -10 -10 -9 -9 -9 -6 -6 -6 -6 -6 -6 -6 -5 -5 -5 -5 -5 -5 -5 -5 -5 -5
-21 -21 -21 -19 -20 -18 -17 -16 -17 -15 -13 -13 -13 -10 -12 -12 -11 -10 -10 -10 -10 -10 -8 -7 -7 -9 -6 -5 -5 -6 -7 -7 -7 -6 -6 -5 -5 -5 -5 -5 -5 -5 -5 -5
-22 -21 -21 -20 -20 -20 -17 -17 -17 -17 -15 -13 -13 -12 -11 -12 -11 -11 -10 -10 -9 -9 -9 -7 -6 -6 -6 -6 -6 -5 -7 -7 -7 -7 -6 -6 -5 -5 -5 -5 -5 -5 -5 -5
-21 -22 -21 -21 -20 -20 -20 -19 -19 -18 -17 -16 -15 -14 -12 -12 -11 -11 -10 -9 -10 -8 -8 -8 -8 -7 -7 -7 -7 -6 -6 -7 -7 -7 -6 -7 -6 -6 -5 -5 -5 -5 -5 -5
-21 -22 -22 -21 -21 -20 -20 -19 -19 -18 -17 -17 -15 -14 -13 -12 -12 -11 -10 -10 -9 -8 -6 -7 -8 -7 -7 -8 -7 -8 -7 -7 -7 -7 -7 -7 -7 -6 -5 -5 -5 -5 -5 -6
-21 -21 -22 -21 -21 -21 -21 -20 -20 -20 -18 -18 -16 -15 -14 -13 -12 -13 -11 -10 -9 -8 -8 -9 -8 -8 -7 -7 -7 -7 -7 -7 -7 -7 -7 -7 -7 -6 -6 -5 -5 -5 -5 -5
-21 -21 -21 -21 -21 -20 -21 -21 -20 -20 -18 -18 -16 -15 -15 -14 -14 -13 -12 -10 -10 -9 -8 -9 -8 -7 -7 -8 -8 -8 -7 -7 -8 -7 -7 -7 -7 -6 -6 -5 -5 -5 -5 -5
-21 -21 -20 -21 -20 -20 -20 -20 -20 -20 -19 -19 -18 -17 -15 -14 -14 -13 -13 -10 -9 -10 -9 -9 -9 -8 -8 -7 -8 -8 -8 -8 -8 -7 -7 -7 -7 -7 -6 -6 -6 -5 -5 -5
-20 -20 -20 -20 -20 -20 -20 -20 -20 -20 -20 -19 -19 -17 -16 -15 -14 -13 -13 -12 -11 -10 -11 -9 -9 -9 -8 -8 -8 -8 -8 -8 -7 -7 -7 -7 -7 -7 -7 -6 -6 -5 -5 -5
-20 -20 -20 -19 -20 -20 -20 -20 -20 -20 -20 -19 -19 -17 -16 -16 -14 -13 -13 -13 -13 -11 -10 -10 -10 -9 -8 -8 -8 -8 -8 -8 -8 -8 -7 -7 -7 -8 -7 -7 -6 -6 -5 -5
-20 -20 -19 -19 -19 -19 -19 -19 -19 -20 -20 -20 -19 -18 -17 -16 -14 -14 -14 -14 -12 -11 -10 -10 -10 -9 -9 -8 -8 -8 -8 -9 -8 -8 -8 -8 -8 -8 -8 -7 -7 -6 -6 -6
Height
5839 5842 5846 5849 5852 5855 5857 5860 5865 5870 5874 5877 5878 5878 5880 5884 5886 5876 5887 5890 5891 5895 5898 5901 5903 5906 5909 5912 5915 5918 5921 5924 5928 5930 5933 5936 5938 5939 5940 5941 5941 5943 5945 5945
5832 5837 5841 5843 5846 5849 5851 5855 5860 5867 5870 5875 5877 5876 5875 5878 5882 5886 5883 5889 5890 5893 5897 5900 5902 5904 5907 5910 5913 5916 5920 5922 5926 5930 5933 5936 5939 5940 5941 5943 5943 5944 5947 5947
5825 5832 5833 5836 5840 5844 5847 5850 5856 5861 5866 5870 5875 5875 5869 5869 5875 5875 5876 5886 5889 5892 5895 5899 5901 5903 5905 5908 5911 5915 5918 5921 5925 5929 5933 5936 5938 5941 5942 5943 5945 5946 5948 5949
5817 5822 5823 5828 5833 5837 5840 5845 5850 5854 5856 5861 5867 5868 5866 5867 5869 5860 5871 5884 5885 5890 5893 5897 5899 5901 5903 5906 5908 5912 5915 5918 5922 5927 5932 5935 5938 5941 5943 5944 5946 5947 5949 5951
5808 5811 5815 5819 5825 5828 5835 5837 5841 5846 5848 5853 5856 5861 5864 5865 5862 5870 5858 5877 5881 5886 5891 5894 5896 5898 5901 5904 5906 5909 5912 5916 5921 5925 5930 5934 5938 5941 5943 5945 5947 5949 5951 5953
5797 5800 5803 5809 5814 5818 5825 5828 5831 5837 5840 5838 5849 5853 5857 5860 5859 5863 5864 5868 5876 5881 5886 5891 5893 5896 5899 5902 5905 5908 5911 5915 5918 5923 5928 5932 5936 5940 5943 5945 5948 5950 5952 5954
5785 5791 5793 5797 5802 5809 5813 5818 5822 5827 5827 5831 5845 5847 5852 5858 5858 5862 5867 5872 5871 5878 5883 5886 5890 5894 5896 5899 5902 5905 5909 5913 5917 5920 5925 5930 5934 5938 5942 5945 5947 5950 5952 5954
5776 5782 5783 5789 5791 5799 5803 5808 5812 5818 5824 5831 5835 5835 5847 5857 5861 5859 5860 5865 5869 5873 5878 5883 5888 5891 5893 5896 5899 5902 5906 5909 5914 5918 5923 5926 5930 5936 5940 5943 5947 5949 5952 5954
5766 5770 5778 5777 5780 5784 5794 5796 5810 5812 5820 5822 5830 5832 5843 5846 5855 5856 5855 5852 5856 5850 5866 5876 5883 5888 5890 5893 5897 5899 5901 5904 5909 5913 5918 5923 5928 5932 5937 5941 5945 5947 5950 5953
5757 5758 5766 5769 5774 5776 5778 5792 5799 5799 5806 5810 5821 5828 5834 5840 5845 5851 5854 5851 5848 5838 5844 5863 5873 5881 5887 5890 5893 5895 5899 5901 5904 5908 5913 5919 5924 5929 5934 5938 5942 5945 5947 5950
5743 5748 5758 5758 5762 5767 5771 5778 5784 5791 5800 5802 5811 5820 5834 5836 5838 5842 5849 5853 5850 5858 5838 5854 5866 5870 5878 5883 5888 5892 5895 5897 5900 5905 5911 5915 5921 5926 5930 5935 5939 5942 5945 5948
5727 5733 5739 5748 5754 5760 5760 5767 5775 5780 5789 5790 5802 5814 5822 5830 5831 5832 5836 5845 5851 5845 5852 5846 5856 5862 5871 5876 5882 5887 5890 5894 5897 5900 5905 5910 5915 5920 5926 5932 5936 5939 5942 5945
5712 5720 5726 5733 5742 5744 5747 5755 5763 5771 5780 5784 5796 5805 5818 5825 5828 5826 5825 5832 5843 5850 5845 5840 5844 5856 5865 5872 5876 5882 5886 5889 5892 5896 5900 5905 5910 5915 5922 5928 5932 5936 5939 5942
5699 5703 5709 5716 5731 5733 5737 5742 5749 5759 5765 5777 5782 5801 5811 5814 5810 5814 5817 5820 5829 5838 5842 5841 5843 5831 5852 5868 5872 5876 5881 5884 5887 5891 5895 5901 5907 5913 5917 5922 5927 5931 5936 5938
5681 5683 5692 5699 5708 5711 5718 5725 5732 5741 5753 5762 5775 5784 5797 5786 5793 5797 5807 5815 5819 5824 5831 5839 5846 5850 5821 5854 5864 5870 5875 5879 5883 5887 5891 5896 5901 5905 5910 5916 5921 5926 5930 5934
5669 5672 5675 5682 5693 5693 5701 5710 5717 5726 5740 5749 5758 5758 5771 5760 5781 5788 5794 5796 5807 5814 5813 5819 5831 5841 5839 5848 5854 5865 5869 5874 5878 5881 5886 5889 5893 5898 5904 5910 5915 5920 5925 5929
5662 5664 5666 5670 5675 5684 5686 5697 5708 5717 5726 5735 5741 5753 5757 5756 5770 5770 5773 5785 5790 5800 5803 5810 5820 5828 5833 5835 5844 5854 5863 5868 5874 5878 5880 5884 5888 5893 5899 5903 5908 5913 5919 5923
5655 5657 5658 5662 5666 5667 5685 5690 5698 5702 5709 5719 5731 5744 5743 5744 5751 5765 5769 5770 5776 5787 5797 5808 5815 5819 5826 5835 5846 5850 5855 5863 5869 5873 5876 5878 5882 5888 5893 5898 5903 5908 5913 5918
5650 5648 5650 5653 5658 5664 5667 5679 5682 5683 5694 5702 5707 5718 5729 5735 5743 5754 5761 5760 5761 5772 5782 5796 5806 5813 5822 5830 5837 5841 5850 5858 5863 5869 5872 5875 5877 5881 5887 5893 5897 5902 5906 5910
5645 5645 5645 5648 5650 5653 5662 5659 5668 5673 5680 5689 5695 5715 5723 5723 5727 5743 5742 5735 5749 5765 5778 5787 5797 5805 5813 5821 5827 5834 5844 5852 5859 5865 5868 5869 5871 5875 5880 5886 5890 5894 5899 5904
5640 5639 5638 5641 5643 5647 5653 5653 5657 5661 5672 5669 5681 5694 5707 5716 5725 5719 5719 5734 5750 5760 5771 5776 5783 5792 5800 5808 5818 5827 5836 5846 5855 5856 5860 5863 5866 5870 5874 5879 5883 5888 5892 5896
5637 5635 5634 5636 5637 5642 5641 5639 5650 5646 5646 5656 5665 5676 5688 5699 5706 5704 5714 5733 5744 5757 5764 5769 5777 5784 5795 5803 5810 5821 5830 5840 5843 5849 5853 5858 5861 5864 5868 5873 5878 5882 5886 5891
5636 5634 5632 5632 5632 5630 5630 5632 5636 5640 5643 5650 5656 5662 5673 5683 5692 5707 5720 5726 5738 5748 5754 5764 5772 5780 5787 5793 5802 5812 5820 5827 5835 5841 5847 5852 5855 5858 5862 5866 5871 5875 5880 5884
5633 5630 5628 5626 5625 5622 5622 5620 5620 5620 5624 5632 5640 5649 5658 5670 5682 5694 5707 5714 5727 5735 5746 5756 5763 5771 5778 5784 5793 5802 5811 5820 5829 5834 5840 5844 5849 5851 5855 5860 5864 5868 5873 5878
5632 5628 5625 5623 5620 5617 5614 5611 5610 5608 5606 5616 5627 5637 5646 5657 5669 5683 5694 5702 5708 5717 5734 5745 5754 5762 5768 5774 5782 5792 5801 5810 5819 5827 5831 5836 5842 5845 5848 5852 5856 5860 5865 5869
5629 5624 5620 5617 5614 5611 5608 5606 5604 5601 5597 5603 5613 5625 5635 5646 5659 5671 5679 5686 5695 5703 5719 5734 5743 5751 5758 5765 5772 5782 5790 5799 5809 5817 5822 5828 5833 5837 5841 5844 5849 5852 5856 5861
Wind_Speed
26 24 20 18 20 22 23 22 20 25 23 22 24 24 27 27 28 15 18 9 10 11 12 15 16 16 15 13 14 16 17 17 17 16 15 12 12 12 11 8 10 11 11 10
31 27 25 24 24 25 27 27 27 20 24 23 26 24 29 27 31 28 16 12 11 11 6 11 12 15 16 16 16 17 18 19 21 17 16 15 14 14 12 9 9 9 11 9
34 31 33 31 30 28 29 31 27 26 22 24 25 26 32 32 21 22 16 17 17 12 7 10 7 13 16 17 18 19 19 21 21 21 17 16 15 14 12 10 9 9 10 9
39 39 39 38 36 34 33 32 32 32 32 32 28 30 31 31 28 23 31 25 20 15 10 9 6 6 15 17 21 22 21 23 23 24 19 17 18 16 13 11 9 9 9 9
39 43 45 44 42 43 39 37 36 38 39 39 34 30 33 33 41 37 44 25 23 19 17 13 11 9 11 14 19 23 23 23 23 25 24 19 18 18 15 12 10 10 9 8
41 45 47 50 50 47 46 45 44 41 43 47 43 39 32 33 35 35 29 32 30 26 21 20 18 14 11 11 13 18 23 22 23 24 25 23 20 19 18 15 13 11 9 7
39 41 44 47 52 54 51 50 48 48 47 49 43 46 46 30 30 33 30 34 28 31 24 24 24 17 15 13 13 13 19 23 23 25 24 24 23 21 20 19 16 13 11 9
29 25 35 43 51 50 55 53 51 49 48 49 42 48 42 37 33 30 38 31 31 29 31 27 27 21 20 16 13 13 16 22 23 25 25 25 24 22 20 20 18 16 13 11
36 33 21 16 34 45 49 40 53 42 30 44 31 32 40 39 38 34 32 34 47 38 31 30 31 26 23 20 16 16 18 22 27 27 27 27 25 23 21 20 20 18 16 13
40 42 36 31 28 30 34 46 34 44 40 39 33 30 30 34 42 45 43 37 37 34 38 32 35 31 26 24 21 20 21 23 28 32 30 29 29 26 24 22 20 20 18 15
45 44 42 42 29 33 36 41 44 36 39 43 36 29 19 30 29 33 43 49 55 51 39 27 33 33 31 27 26 18 18 25 28 31 31 30 28 29 27 24 22 20 19 17
48 48 48 51 48 28 36 34 38 44 42 44 46 27 26 26 32 37 40 43 50 41 35 37 41 34 35 29 25 20 15 19 25 29 34 32 31 31 29 26 24 22 21 21
50 49 47 51 53 52 46 49 44 37 45 39 39 40 24 20 19 29 35 39 46 50 54 49 48 53 28 30 27 23 18 15 22 27 32 35 34 31 29 28 26 25 22 23
52 55 47 48 33 38 36 32 31 37 45 44 44 38 26 23 31 32 28 19 39 52 59 50 53 31 31 30 31 27 22 18 21 26 28 33 34 31 30 31 30 28 24 24
50 54 49 51 46 40 50 46 44 47 48 51 43 45 40 45 44 43 37 28 35 46 42 44 48 46 44 30 34 32 28 23 20 23 26 27 33 34 33 31 31 30 28 27
39 46 45 48 51 57 53 59 56 52 51 51 60 52 57 47 46 47 48 49 41 48 47 45 47 46 52 53 30 37 32 26 21 20 24 29 33 35 33 32 30 32 31 30
27 23 28 35 42 55 59 58 57 57 55 59 66 66 63 47 47 51 50 53 53 47 56 55 55 52 48 38 33 36 31 30 26 20 24 27 30 34 33 33 32 30 30 32
25 27 27 28 29 38 52 58 55 60 62 59 62 71 64 65 55 52 47 50 58 56 54 49 51 57 54 54 27 34 31 33 27 23 23 27 27 30 34 34 32 31 29 30
15 20 32 31 29 29 31 35 51 50 62 59 64 73 79 68 64 56 51 40 54 51 58 50 50 51 47 48 47 42 36 33 30 21 18 23 27 28 31 31 31 32 31 31
16 17 22 33 33 33 26 33 42 51 59 62 67 62 70 80 69 77 60 62 70 60 54 50 47 48 50 53 52 50 37 33 30 23 18 22 27 28 29 29 30 31 32 31
15 15 26 21 36 37 34 33 38 46 54 61 67 66 66 75 78 67 74 59 64 59 51 50 50 49 52 53 52 48 39 36 31 28 25 25 26 27 29 30 30 30 32 33
5 8 10 20 27 38 44 44 39 51 62 60 64 67 66 68 74 87 79 81 53 57 54 50 51 50 49 52 53 50 43 39 39 33 30 28 25 28 29 31 30 28 29 32
8 8 9 14 18 29 36 44 50 47 49 47 51 60 64 66 70 73 82 85 78 51 50 55 46 47 49 52 53 52 51 47 42 38 34 30 28 25 29 30 30 31 29 28
13 13 8 12 17 18 20 29 39 51 59 54 54 52 61 57 58 61 70 82 83 73 54 56 55 54 52 56 55 53 53 47 43 40 36 33 30 25 28 30 30 31 32 30
15 14 13 13 14 17 20 19 26 32 47 56 48 52 54 56 50 51 55 63 68 85 79 60 55 53 53 58 59 56 55 50 46 43 41 37 35 31 26 28 30 32 34 33
19 19 17 16 16 12 14 16 20 20 18 42 46 47 48 54 56 51 49 43 59 69 66 68 58 54 54 56 59 58 59 54 51 46 43 40 42 37 33 27 27 30 31 34
Wind_Direction
233 234 240 236 233 227 234 221 232 227 230 232 252 244 245 243 239 210 195 228 212 207 224 233 230 231 221 225 223 215 208 205 200 197 188 187 174 166 162 157 145 133 129 123
235 235 233 232 230 224 230 235 228 224 218 244 238 247 253 249 228 216 203 219 203 199 213 237 237 238 231 219 217 211 211 207 202 203 191 182 181 174 171 163 149 149 139 136
235 233 229 230 232 233 231 233 233 225 216 211 235 245 256 250 234 199 231 220 216 200 222 216 247 244 236 225 214 211 211 209 206 205 198 187 183 182 178 169 169 168 145 141
235 230 235 230 229 232 233 233 230 233 221 218 237 229 247 245 230 207 199 225 223 215 214 210 246 279 248 230 215 209 213 210 208 206 202 194 191 188 185 180 177 174 157 154
237 234 231 233 231 229 230 229 227 228 236 226 217 246 231 247 247 233 208 211 223 224 225 221 231 225 243 239 228 212 209 216 211 208 206 200 201 191 189 188 192 186 175 168
240 236 233 231 233 232 228 229 231 230 230 233 229 230 237 222 250 263 254 212 237 228 230 223 228 221 230 249 253 228 213 218 216 213 210 206 205 199 194 197 197 197 194 185
242 236 239 240 232 231 232 228 231 231 230 242 236 239 240 228 244 249 245 241 232 242 228 229 231 230 230 221 243 234 226 219 222 218 214 211 211 210 202 203 202 201 205 203
246 242 243 239 239 236 234 232 231 233 234 243 247 239 240 242 218 259 261 234 238 235 239 229 238 229 232 221 217 233 231 223 222 226 217 215 216 212 207 208 207 206 209 210
234 234 195 258 241 240 231 228 233 229 230 243 237 259 237 239 225 220 245 246 234 199 237 228 241 241 238 236 231 232 232 227 220 219 221 220 217 214 214 211 213 212 212 217
247 243 227 220 246 225 235 223 228 229 224 229 236 233 247 241 238 230 222 238 229 225 206 238 233 237 240 246 242 238 234 230 221 220 217 219 220 219 217 214 214 218 214 218
244 239 229 228 214 240 239 238 208 222 231 225 228 221 232 259 264 253 241 235 244 234 223 242 242 231 234 237 248 245 241 232 227 221 223 220 224 224 222 217 218 218 218 219
244 233 230 227 228 235 240 224 225 220 214 215 221 209 211 224 253 259 247 227 230 253 246 247 252 237 229 236 238 242 247 244 230 221 221 222 219 223 222 220 219 219 217 219
247 244 236 232 226 223 238 242 236 222 217 214 223 198 182 203 219 253 260 244 220 218 226 248 258 227 215 239 238 235 236 250 238 227 222 223 224 222 225 222 222 224 222 221
254 247 238 230 225 224 224 235 219 220 221 209 204 203 183 225 200 206 211 216 216 215 222 236 245 219 265 235 242 238 236 243 247 237 226 225 226 227 226 227 226 226 224 228
248 250 242 233 208 216 212 214 217 208 214 210 210 194 194 224 210 204 209 207 207 213 224 224 222 236 234 239 236 241 237 242 252 244 235 226 226 226 227 228 228 227 226 229
249 251 250 231 225 208 210 218 220 218 210 209 202 210 197 228 205 205 211 210 219 229 204 205 201 212 240 236 234 240 237 242 253 247 236 226 224 226 226 227 231 231 230 231
246 253 246 242 233 216 217 215 218 225 219 219 207 201 198 223 209 194 191 207 212 214 218 213 211 210 218 228 217 220 228 241 248 252 243 231 227 227 227 228 229 232 232 231
254 241 240 237 232 231 223 219 215 222 223 222 214 207 208 213 214 210 201 209 215 213 224 229 229 228 226 224 226 234 227 239 246 252 245 241 233 229 229 229 229 230 233 233
266 266 246 236 232 218 215 222 220 220 223 220 216 206 211 212 214 210 220 215 203 215 216 218 220 226 231 234 235 238 228 232 240 246 252 243 242 233 230 231 232 231 233 234
257 251 259 241 236 224 200 220 212 216 226 227 224 215 211 217 219 209 215 212 218 224 227 217 217 221 220 225 226 231 229 231 233 241 245 241 238 237 230 229 231 230 230 231
276 265 245 242 237 238 219 226 222 220 224 228 226 220 214 215 220 224 218 216 219 224 217 213 212 216 218 223 226 229 224 225 227 228 236 238 235 233 232 229 229 230 229 229
278 286 259 235 239 231 233 239 223 224 225 225 225 224 219 216 217 222 223 212 220 218 216 218 217 218 218 221 225 226 225 220 225 228 237 235 239 231 230 232 231 232 234 233
310 268 244 236 237 237 234 239 240 233 231 235 233 229 224 222 221 221 220 217 218 208 211 218 215 220 217 220 223 224 221 219 223 229 239 238 237 233 230 229 231 233 235 237
320 329 300 266 243 246 238 242 239 237 230 226 226 224 224 223 223 220 220 222 220 224 220 225 223 221 218 220 221 223 224 220 223 232 236 239 234 233 234 230 230 233 237 239
303 307 296 295 292 285 272 257 254 250 238 223 221 220 220 216 223 217 220 222 225 225 224 224 224 219 219 222 222 220 226 225 220 231 235 236 230 228 233 230 230 232 235 234
355 346 335 312 299 305 264 269 248 266 236 213 208 210 213 215 220 217 224 231 222 223 221 214 223 221 219 222 223 219 222 221 226 226 230 230 245 227 228 231 235 232 234 236